Overview Statistics Trail Chart Weather Telemetry Raw packets
 

This is the latest recevied weather packets stored in our database for station/object KK7MLS-13. If no packets are shown the sender has not sent any weather packets the latest 10 day(s).

<< 108 109 110 111 112 113 114 >>
Time Temp. Humidity Pressure Rain* Wind** Luminosity Snow
1787854455 22.78° C 51% 1019.4 hPa 0 mm - 617 W/m² -
1787854150 22.78° C 50% 1019.2 hPa 0 mm - 604 W/m² -
1787853845 22.78° C 52% 1019.3 hPa 0 mm - 597 W/m² -
1787853543 22.78° C 51% 1019.2 hPa 0 mm - 587 W/m² -
1787853239 23.33° C 50% 1019.5 hPa 0 mm - 577 W/m² -
1787852938 22.78° C 52% 1019.4 hPa 0 mm - 567 W/m² -
1787852633 21.67° C 54% 1019.2 hPa 0 mm - 556 W/m² -
1787852332 22.22° C 54% 1019.4 hPa 0 mm - 547 W/m² -
1787852031 21.67° C 55% 1019.4 hPa 0 mm - 534 W/m² -
1787851730 21.67° C 54% 1019.4 hPa 0 mm - 528 W/m² -
1787851425 21.67° C 55% 1019.5 hPa 0 mm - 524 W/m² -
1787851120 21.11° C 55% 1019.4 hPa 0 mm - 502 W/m² -
1787850816 20.56° C 57% 1019.4 hPa 0 mm - 489 W/m² -
1787850512 20° C 60% 1019.2 hPa 0 mm - 477 W/m² -
1787850206 20° C 60% 1019.3 hPa 0 mm - 465 W/m² -
1787849902 19.44° C 61% 1019 hPa 0 mm - 451 W/m² -
1787849602 19.44° C 61% 1019.3 hPa 0 mm - 438 W/m² -
1787849301 19.44° C 62% 1019.1 hPa 0 mm - 424 W/m² -
1787849001 19.44° C 63% 1019 hPa 0 mm - 39 W/m² -
1787848695 20° C 60% 1019.2 hPa 0 mm - 37 W/m² -
1787848390 20.56° C 61% 1019.1 hPa 0 mm - 37 W/m² -
1787848084 20° C 62% 1018.9 hPa 0 mm - 36 W/m² -
1787847784 20° C 61% 1019.2 hPa 0 mm - 356 W/m² -
1787847479 20° C 62% 1018.9 hPa 0 mm - 341 W/m² -
1787847169 20° C 62% 1018.9 hPa 0 mm - 326 W/m² -

* Rain latest hour (hover to see other rain measurements)
** Current wind speed in m/s (hover to see current wind gust speed)